星链-4800 (STARLINK-4800 )

导读 | 豆包AI

STARLINK-4800是美国SpaceX公司星链星座中的一颗卫星,于2022年9月19日发射入轨,属于星链项目批量部署的卫星之一,主要为全球提供低延迟、高速率的宽带互联网服务,尤其覆盖偏远地区及网络基础设施薄弱区域,依托低轨轨道布局,助力全球互联网络覆盖构建。

Basic Information
目录编号:
53854
目录名称:
STARLINK-4800
国际标识:
2022-114AN
轨道中心:
EARTH
卫星名称:
星链-4800
卫星全名:
星链-4800 (STARLINK-4800 )
卫星状态:
在轨 (已飞行1319 天)
发射日期:
2022-09-19 UTC
国别 :
美国 (US)
星等 :
--
Orbit Information
数据来源 国际轨道数据 AOE轨道数据
星历时间 2026-04-30T12:36:29+0800
13小时前
查看轨道信息
2026-04-26T23:00:00+0800
4天前
查看轨道信息
半长轴 6917.894km 6917.836km
偏心率 0.0001366 0.0002074
轨道倾角 53.218° 53.216°
近地点辐角 89.989° 141.839°
升交点赤经 53.151° 69.162°
平近点角 270.126° 272.461°
近地点 538.812km 538.264km
远地点 540.702km 541.134km
周期 95.438分钟 95.437分钟
每日圈数 15.088356 15.088548
Detailed Information
固有亮度:
5
最大亮度:
2.5
卫星平台:
Starlink v1.5
覆盖范围:
全球
运营商:
太空探索技术公司
运营商所在国:
美国
制造商(研发单位):
太空探索技术公司
制造商所在国:
美国
使用方式:
暂无
Satellite Introduction
星链(Starlink)计划是由太空探索技术公司(SpaceX)提出的一个巨型低轨卫星互联网星座项目,计划在2019年至2024年间在太空搭建由约1.2万颗卫星组成的“星链”网络,其中1584颗将部署在地球上空550千米处的近地轨道,并从2020年开始工作。该卫星仍在工作。
2D Orbit Map
3D Orbit Map
Orbit Altitude Analysis Chart
Orbit Inclination Analysis Chart
Orbit Comprehensive Analysis Chart
View Comprehensive Chart